Find Starlink 11492

NORAD ID: 62224 Int'l Des: 2024-231 Owner: SPXS Country: US Constellation: starlink operational
又名: STARLINK-11492 [DTC] celestrak
LEOCIRCULAR

当前视图

正在加载3D地球...

About Starlink 11492

Starlink 11492 (NORAD 62224) is a starlink constellation satellite (v2 mini d2c) launched Dec 5, 2024 by SPXS of US. It operates in LEO, CIRCULAR orbit with a mass of 960.00 kg.

即将过境

Passes for default location (London). Set your location on the main map for personalized predictions.

高度历史

Loading altitude history...

两行轨道根数

1 62224U 24231G 26262.91541624 .00163944 00000-0 13264-2 0 9993
2 62224 53.1562 224.0499 0001748 90.6026 269.5192 15.69801396103919
Epoch: Sep 19, 2026 • Age: 20 hours

当前状态

高度 359.2 km
远地点 / 近地点 N/A
速度 7.70 km/s
星下点 27.03°N, 101.11°E
发射日期 Dec 5, 2024
运行时间 1.7 years
类型 internet

技术详情

分类 Payload
质量 960.00 kg
干质量 910.00 kg
长度 0.30 m
跨度 29.00 m
形状 ? Box + pan
制造商 SPXS
平台类型 Starlink V2MD
阶段状态 In Orbit
所有者/国家 SPXS/US

Most Searched